Date,TemperatureHighF,TemperatureAvgF,TemperatureLowF,DewpointHighF,DewpointAvgF,DewpointLowF,HumidityHigh,HumidityAvg,HumidityLow,PressureMaxIn,PressureMinIn,WindSpeedMaxMPH,WindSpeedAvgMPH,GustSpeedMaxMPH,PrecipitationSumIn
2013-1-1,82.9,82.9,82.9,-99.9,-99.9,-99.9,0,0,100,29.65,29.65,4,4,4,0.00
2013-1-2,83.7,83.5,83.4,13.0,-19.6,-99.9,7,3,1,29.74,29.71,2,1,3,0.00
2013-1-3,78.9,78.8,78.6,-99.9,-99.9,-99.9,0,0,100,29.76,29.75,2,1,2,0.02
2013-1-4,79.5,79.5,79.5,-99.9,-99.9,-99.9,0,0,100,29.67,29.67,2,2,2,0.00
2013-1-5,80.9,80.7,80.5,-99.9,-99.9,-99.9,0,0,100,29.63,29.63,0,0,0,0.01
2013-1-6,83.7,83.6,83.4,-99.9,-99.9,-99.9,0,0,100,29.66,29.66,0,0,0,0.00
2013-1-7,84.2,84.1,84.1,-99.9,-99.9,-99.9,0,0,100,29.68,29.68,0,0,0,0.00
2013-1-8,82.8,82.7,82.5,-99.9,-99.9,-99.9,0,0,100,29.72,29.72,1,0,1,0.00
2013-1-9,82.7,82.7,82.7,-99.9,-99.9,-99.9,0,0,100,29.67,29.67,0,0,0,0.00
2013-1-10,83.2,83.2,83.2,-99.9,-99.9,-99.9,0,0,100,29.65,29.65,0,0,0,0.00
2013-1-11,85.0,85.0,85.0,-99.9,-99.9,-99.9,0,0,100,29.67,29.67,3,2,4,0.00
2013-1-12,83.6,83.5,83.3,-99.9,-99.9,-99.9,0,0,100,29.68,29.68,0,0,0,0.00
2013-1-13,83.1,83.0,82.9,-99.9,-99.9,-99.9,0,0,100,29.69,29.68,0,0,0,0.00
2013-1-14,85.9,85.4,84.6,60.1,47.0,26.4,42,29,12,29.69,29.68,1,1,1,0.00
2013-1-15,82.8,82.8,82.8,-99.9,-99.9,-99.9,0,0,100,29.75,29.75,0,0,0,0.00
2013-1-16,83.6,83.6,83.6,60.0,60.0,60.0,45,45,45,29.74,29.74,3,3,4,0.00
2013-1-17,85.3,84.3,83.4,71.7,69.2,66.1,64,61,56,29.74,29.72,5,3,8,0.00
2013-1-18,83.2,83.2,83.2,62.6,62.6,62.6,50,50,50,29.77,29.77,4,4,4,0.00
2013-1-19,79.9,79.9,79.9,-99.9,-99.9,-99.9,0,0,100,29.78,29.78,2,2,2,0.00
2013-1-20,86.1,85.7,85.3,73.0,72.6,72.2,65,65,65,29.72,29.72,4,3,4,0.00
2013-1-21,86.9,86.9,86.8,74.2,73.9,73.6,66,66,65,29.71,29.71,5,4,7,0.00
2013-1-22,84.2,83.9,83.7,69.3,68.5,67.8,61,60,59,29.75,29.75,6,5,9,0.00
2013-1-23,84.0,84.0,84.0,58.4,58.1,57.8,42,42,41,29.75,29.75,3,2,5,0.00
2013-1-24,80.1,80.1,80.1,-99.9,-99.9,-99.9,0,0,100,29.74,29.74,2,2,2,0.00
2013-1-25,84.3,83.0,81.9,67.4,62.5,57.4,57,50,43,29.76,29.73,5,3,5,0.00
2013-1-26,83.6,83.5,83.4,70.1,70.0,69.9,64,64,64,29.74,29.74,2,2,3,0.00
2013-1-27,84.9,84.7,84.4,70.9,70.2,69.5,63,62,61,29.72,29.72,2,1,6,0.00
2013-1-28,83.9,83.9,83.8,70.4,70.4,70.3,64,64,64,29.73,29.72,5,4,7,0.00
2013-1-29,82.6,82.6,82.6,71.4,71.4,71.4,69,69,69,29.76,29.76,1,1,3,0.00
2013-2-2,84.4,83.8,82.8,72.2,71.9,71.6,69,68,67,29.72,29.69,5,3,6,0.00
2013-2-3,91.4,89.5,87.3,74.3,73.5,72.8,64,60,56,29.67,29.64,9,5,18,0.00
2013-2-4,87.9,87.9,87.9,74.7,74.7,74.7,65,65,65,29.71,29.71,4,4,4,0.00
2013-2-5,85.6,85.6,85.5,73.8,73.8,73.7,68,68,68,29.77,29.77,1,1,3,0.00
2013-2-6,83.7,83.6,83.6,72.4,72.2,71.9,69,69,68,29.72,29.72,1,1,1,0.00
2013-2-7,81.9,81.5,81.1,65.2,63.2,61.8,57,54,52,29.68,29.67,0,0,1,0.00
2013-2-8,82.4,82.4,82.4,63.5,63.5,63.5,53,53,53,29.66,29.66,0,0,0,0.00
2013-2-9,85.6,85.6,85.6,72.9,72.9,72.9,66,66,66,29.70,29.70,3,3,3,0.00
2013-2-10,86.5,86.3,86.2,70.7,70.6,70.5,60,60,59,29.65,29.65,4,4,15,0.00
2013-2-11,85.8,85.8,85.8,71.7,71.7,71.7,63,63,63,29.66,29.66,2,2,2,0.00
2013-2-12,78.1,78.1,78.1,59.0,59.0,59.0,52,52,52,29.66,29.66,4,4,4,0.00
2013-2-13,83.5,83.4,83.4,73.1,73.1,73.0,71,71,71,29.68,29.67,2,2,3,0.00
2013-2-14,89.1,87.8,86.2,74.5,74.2,73.9,67,64,61,29.64,29.61,7,5,10,0.00
2013-2-15,81.7,81.7,81.7,72.6,72.6,72.6,74,74,74,29.67,29.67,1,1,1,0.00
2013-2-16,84.0,84.0,84.0,73.6,73.6,73.6,71,71,71,29.66,29.66,1,1,1,0.00
2013-2-17,84.8,84.7,84.5,75.2,75.1,74.9,73,73,73,29.61,29.61,1,0,2,0.00
2013-2-18,86.2,86.2,86.2,74.4,74.4,74.4,68,68,68,29.61,29.61,0,0,0,0.00
2013-2-19,83.8,83.8,83.8,74.6,74.6,74.6,74,74,74,29.65,29.65,2,2,2,0.00
2013-2-20,84.5,84.5,84.5,74.5,74.5,74.5,72,72,72,29.63,29.63,0,0,0,0.00
2013-2-21,81.6,81.6,81.6,72.9,72.9,72.9,75,75,75,29.69,29.69,0,0,0,0.00
2013-2-22,84.9,84.9,84.8,75.7,75.6,75.6,74,74,74,29.69,29.69,0,0,3,0.00
2013-2-23,80.9,80.9,80.9,72.6,72.6,72.6,76,76,76,29.70,29.70,0,0,0,0.00
2013-2-24,80.7,80.3,80.0,71.6,71.0,70.6,74,73,72,29.68,29.67,0,0,0,0.05
2013-2-25,77.8,77.8,77.8,67.6,67.6,67.6,71,71,71,29.72,29.72,0,0,0,0.00
2013-2-26,81.7,81.6,81.6,71.8,71.8,71.7,72,72,72,29.68,29.68,1,0,2,0.00
2013-2-27,80.1,79.5,78.7,65.9,63.6,60.4,62,58,53,29.68,29.65,2,1,2,0.27
2013-2-28,79.9,79.9,79.9,55.4,55.4,55.4,43,43,43,29.64,29.64,0,0,0,0.00
2013-3-1,83.6,83.3,83.1,64.7,63.9,63.1,53,52,51,29.66,29.66,0,0,2,0.00
2013-3-2,85.9,85.0,84.5,74.5,73.1,72.3,69,68,67,29.70,29.69,0,0,1,0.00
2013-3-3,87.1,87.1,87.0,76.5,76.5,76.5,71,71,71,29.69,29.69,3,3,3,0.00
2013-3-4,86.5,86.3,86.2,72.7,72.6,72.4,64,64,63,29.76,29.75,6,6,10,0.00
2013-3-5,83.5,83.5,83.5,73.9,73.9,73.9,73,73,73,29.75,29.75,6,6,6,0.00
2013-3-6,84.6,84.3,83.7,73.3,73.0,72.4,69,69,69,29.76,29.74,3,2,4,0.00
2013-3-7,85.1,85.1,85.1,73.8,73.8,73.8,69,69,69,29.76,29.76,3,3,3,0.00
2013-3-8,86.0,85.9,85.8,75.1,75.0,74.9,70,70,70,29.72,29.72,5,4,5,0.00
2013-3-9,85.0,85.0,85.0,75.8,75.8,75.8,74,74,74,29.72,29.72,0,0,0,0.00
2013-3-10,83.0,83.0,83.0,75.0,75.0,75.0,77,77,77,29.69,29.69,1,1,1,0.00
2013-3-11,86.2,86.2,86.2,75.3,75.3,75.3,70,70,70,29.65,29.65,0,0,0,0.00
2013-3-12,83.2,83.2,83.2,74.8,74.8,74.8,76,76,76,29.72,29.72,0,0,0,0.00
2013-3-13,78.3,78.3,78.3,71.6,71.6,71.6,80,80,80,29.70,29.70,1,1,1,0.00
2013-3-14,83.8,80.9,79.7,76.2,73.9,72.9,81,79,78,29.75,29.73,3,1,3,0.09
2013-3-15,83.7,83.7,83.6,75.3,75.3,75.2,76,76,76,29.75,29.74,2,2,5,0.00
2013-3-16,82.7,82.7,82.7,75.9,75.9,75.9,80,80,80,29.72,29.72,1,1,1,0.00
2013-3-17,85.7,85.6,85.6,77.3,77.2,77.2,76,76,76,29.64,29.64,2,1,2,0.00
2013-3-18,86.2,86.1,86.1,78.0,77.9,77.7,77,77,76,29.63,29.62,2,1,2,0.00
2013-3-19,86.5,86.4,86.4,78.0,77.9,77.9,76,76,76,29.66,29.66,2,2,2,0.00
2013-3-20,85.4,85.4,85.4,78.1,78.1,78.1,79,79,79,29.66,29.66,0,0,1,0.00
2013-3-21,83.4,83.4,83.4,76.2,76.2,76.2,79,79,79,29.63,29.63,1,1,1,0.00
2013-3-22,86.6,86.6,86.6,78.1,78.1,78.1,76,76,76,29.64,29.64,1,1,3,0.00
2013-3-23,95.1,95.1,95.1,78.0,78.0,78.0,58,58,58,29.58,29.58,4,4,4,0.00
2013-3-24,88.0,88.0,88.0,77.8,77.8,77.8,72,72,72,29.58,29.58,3,3,3,0.00
2013-3-25,88.2,88.2,88.2,79.3,79.1,78.9,75,74,74,29.55,29.55,1,0,1,0.00
2013-3-26,85.9,85.9,85.9,76.2,76.2,76.2,73,73,73,29.61,29.61,0,0,0,0.00
2013-3-27,87.7,87.5,87.4,79.2,79.0,78.9,76,76,76,29.59,29.59,1,1,1,0.00
2013-3-28,86.2,86.2,86.2,79.3,79.0,78.9,80,79,79,29.64,29.64,0,0,0,0.00
2013-3-29,87.0,86.9,86.9,79.3,79.2,79.2,78,78,78,29.62,29.61,1,1,4,0.00
2013-3-30,86.4,86.3,86.2,79.1,79.0,78.9,79,79,79,29.60,29.59,1,1,1,0.00
2013-3-31,88.9,88.9,88.8,76.4,76.2,76.1,67,66,66,29.57,29.57,1,0,1,0.00
2013-4-1,84.7,84.7,84.7,79.0,79.0,79.0,83,83,83,29.66,29.66,0,0,0,0.00
2013-4-2,88.2,88.2,88.2,80.1,80.1,80.1,77,77,77,29.60,29.60,1,1,3,0.00
2013-4-3,89.7,89.7,89.7,79.5,79.5,79.5,72,72,72,29.56,29.56,1,1,3,0.00
2013-4-4,87.6,87.6,87.5,80.3,80.3,80.2,79,79,79,29.58,29.57,2,2,2,0.00
2013-4-5,85.1,85.1,85.1,77.8,77.8,77.8,79,79,79,29.63,29.63,1,1,1,0.00
2013-4-6,86.0,86.0,86.0,77.5,77.5,77.5,76,76,76,29.59,29.59,0,0,1,0.00
2013-4-7,87.1,87.1,87.0,78.2,77.8,77.3,75,74,73,29.54,29.53,1,1,1,0.00
2013-4-8,84.3,84.3,84.3,77.5,77.5,77.5,80,80,80,29.68,29.68,0,0,0,0.00
2013-4-9,86.4,86.4,86.4,78.7,78.7,78.7,78,78,78,29.64,29.64,0,0,0,0.00
2013-4-10,80.6,80.6,80.6,76.4,76.4,76.4,87,87,87,29.64,29.64,0,0,0,0.00
2013-4-11,80.2,80.2,80.2,77.0,77.0,77.0,90,90,90,29.69,29.69,0,0,0,0.00
2013-4-12,84.3,84.2,84.1,75.3,75.2,75.1,75,74,74,29.64,29.64,0,0,1,0.00
2013-4-13,81.0,81.0,81.0,76.1,76.1,76.1,85,85,85,29.69,29.69,0,0,0,0.00
2013-4-14,83.4,83.4,83.4,78.4,78.2,78.1,85,84,84,29.66,29.66,1,0,3,0.00
2013-4-15,85.5,85.5,85.5,78.2,78.2,78.2,79,79,79,29.60,29.60,0,0,0,0.00
2013-4-16,80.4,79.6,79.0,77.5,76.7,76.1,91,91,91,29.62,29.61,1,0,1,0.06
2013-4-17,78.8,78.7,78.6,76.3,76.2,76.1,92,92,92,29.63,29.63,0,0,1,1.41
2013-4-18,86.7,85.5,84.1,78.6,77.8,76.9,79,78,77,29.61,29.58,1,0,1,0.00
2013-4-19,85.2,85.2,85.2,77.9,77.9,77.9,79,79,79,29.62,29.62,2,2,2,0.00
2013-4-20,83.6,83.6,83.6,77.5,77.5,77.5,82,82,82,29.65,29.65,0,0,0,0.00
2013-4-21,85.8,85.7,85.5,78.1,78.0,77.9,78,78,78,29.61,29.61,0,0,1,0.00
2013-4-22,87.4,87.4,87.4,77.3,77.3,77.3,72,72,72,29.60,29.60,2,2,2,0.00
2013-4-23,84.8,84.8,84.7,77.2,77.2,77.1,78,78,78,29.67,29.67,1,1,1,0.00
2013-4-24,83.8,83.8,83.8,78.4,78.4,78.4,84,84,84,29.72,29.72,1,1,1,0.00
2013-4-25,79.7,79.7,79.7,77.2,77.2,77.2,92,92,92,29.72,29.72,0,0,0,0.00
2013-4-26,84.7,84.7,84.7,79.3,79.2,79.0,84,84,83,29.69,29.69,0,0,0,0.00
2013-4-27,77.8,77.8,77.7,75.0,74.9,74.9,91,91,91,29.67,29.66,1,1,2,0.00
2013-4-28,86.3,86.3,86.3,79.0,79.0,79.0,79,79,79,29.58,29.58,2,2,2,0.00
2013-4-29,86.7,86.7,86.7,79.0,79.0,79.0,78,78,78,29.60,29.60,0,0,0,0.00
2013-4-30,86.1,86.0,85.9,77.2,77.0,76.6,75,75,74,29.64,29.64,2,2,4,0.01
2013-5-3,83.8,83.8,83.8,77.7,77.7,77.7,82,82,82,29.64,29.64,3,3,3,0.00
2013-5-4,92.2,92.2,92.2,80.1,80.1,80.1,68,68,68,29.64,29.64,2,2,2,0.00
2013-5-5,82.0,81.9,81.9,77.0,76.9,76.9,85,85,85,29.61,29.61,3,2,5,0.13
2013-5-6,77.5,77.4,77.4,75.3,75.2,75.2,93,93,93,29.67,29.67,1,0,1,0.00
2013-5-7,76.7,76.7,76.7,74.8,74.8,74.8,94,94,94,29.65,29.65,0,0,0,0.00
2013-5-8,87.0,86.6,86.4,79.7,79.5,79.1,80,79,79,29.60,29.56,2,1,4,0.00
2013-5-9,77.9,77.9,77.9,75.7,75.7,75.7,93,93,93,29.62,29.62,0,0,0,0.08
2013-5-10,83.1,82.9,82.6,77.4,76.9,76.5,83,82,82,29.58,29.57,0,0,1,0.00
2013-5-11,87.9,87.8,87.8,78.6,78.5,78.5,74,74,74,29.58,29.58,3,3,5,0.00
2013-5-12,79.5,79.4,79.4,76.0,75.9,75.9,89,89,89,29.66,29.66,0,0,0,0.00
2013-5-13,87.0,87.0,87.0,77.7,77.7,77.7,74,74,74,29.61,29.61,2,2,2,0.00
2013-5-14,87.1,85.3,83.8,78.6,77.6,76.7,81,78,76,29.66,29.59,1,0,5,0.00
2013-5-15,83.3,83.0,82.7,78.0,77.9,77.7,85,85,84,29.60,29.60,0,0,1,0.43
2013-5-16,85.7,85.3,84.7,77.9,77.6,77.4,79,78,77,29.63,29.62,0,0,0,0.00
2013-5-17,81.0,80.9,80.9,75.0,74.9,74.9,82,82,82,29.69,29.69,3,2,6,0.00
2013-5-18,85.5,84.5,83.6,76.8,76.5,76.0,79,77,75,29.67,29.63,2,0,2,0.01
2013-5-19,81.8,81.8,81.8,76.8,76.8,76.8,85,85,85,29.62,29.62,0,0,0,0.00
2013-5-22,87.3,87.3,87.3,78.4,78.4,78.4,75,75,75,29.69,29.69,5,5,5,0.00
2013-5-23,80.9,80.9,80.9,76.0,76.0,76.0,85,85,85,29.65,29.65,1,1,1,0.00
2013-5-24,77.1,76.8,76.5,72.9,72.5,72.3,87,87,86,29.69,29.69,0,0,1,0.63
2013-5-25,79.2,79.2,79.2,73.6,73.6,73.6,83,83,83,29.71,29.71,0,0,0,0.00
2013-5-26,78.6,78.6,78.6,73.7,73.7,73.7,85,85,85,29.65,29.65,0,0,0,0.00
2013-5-27,83.6,83.2,82.5,74.8,74.5,74.2,76,75,75,29.63,29.63,1,0,2,0.13
2013-5-28,77.6,77.3,77.1,69.0,68.8,68.6,75,75,75,29.66,29.66,0,0,0,0.08
2013-6-26,80.2,80.1,79.9,-99.9,-99.9,-99.9,0,0,100,29.75,29.73,1,0,1,0.39
2013-6-27,86.9,82.4,77.5,36.8,-25.9,-99.9,17,7,4,29.72,29.70,2,1,3,0.03
2013-6-28,83.9,83.8,83.7,25.7,24.7,23.7,12,12,11,29.64,29.64,0,0,0,0.00
2013-6-29,84.6,84.6,84.6,43.8,43.8,43.8,24,24,24,29.66,29.66,0,0,0,0.00
2013-6-30,83.0,83.0,83.0,-99.9,-99.9,-99.9,0,0,100,29.67,29.67,0,0,0,0.00
2013-7-1,79.7,79.4,78.9,-99.9,-99.9,-99.9,0,0,100,29.61,29.58,1,0,3,0.07
2013-7-2,79.1,79.1,79.1,-99.9,-99.9,-99.9,0,0,100,29.61,29.61,0,0,1,0.00
2013-7-3,77.7,77.5,77.3,-99.9,-99.9,-99.9,0,0,100,29.62,29.61,0,0,0,0.09
2013-7-4,72.6,72.6,72.6,-99.9,-99.9,-99.9,0,0,100,29.65,29.65,3,3,3,0.00
2013-7-5,78.6,78.6,78.6,-99.9,-99.9,-99.9,0,0,100,29.65,29.65,0,0,0,0.00
2013-7-6,83.0,82.7,82.6,-99.9,-99.9,-99.9,0,0,100,29.60,29.60,0,0,0,0.01
2013-7-7,82.5,82.3,82.1,-99.9,-99.9,-99.9,0,0,100,29.65,29.64,0,0,0,0.02
2013-7-8,81.1,81.1,81.1,-99.9,-99.9,-99.9,0,0,100,29.65,29.65,0,0,0,0.00
2013-7-9,83.7,83.2,81.3,-99.9,-99.9,-99.9,0,0,100,29.62,29.59,3,2,3,0.00
2013-7-10,75.6,75.6,75.6,-99.9,-99.9,-99.9,0,0,100,29.62,29.62,2,2,2,0.23
2013-7-11,81.6,81.6,81.6,-99.9,-99.9,-99.9,0,0,100,29.65,29.65,0,0,0,0.00
2013-7-12,83.3,82.9,82.3,-99.9,-99.9,-99.9,0,0,100,29.61,29.61,1,0,1,0.01
2013-7-13,82.0,82.0,82.0,-99.9,-99.9,-99.9,0,0,100,29.59,29.59,1,1,1,0.00
2013-7-14,76.1,76.1,76.1,-99.9,-99.9,-99.9,0,0,100,29.63,29.63,0,0,0,0.00
2013-7-15,83.0,83.0,83.0,-99.9,-99.9,-99.9,0,0,100,29.61,29.61,0,0,0,0.00
2013-7-16,75.1,75.0,74.8,-99.9,-99.9,-99.9,0,0,100,29.67,29.67,1,0,1,0.49
2013-7-17,84.0,83.6,83.3,-99.9,-99.9,-99.9,0,0,100,29.62,29.62,0,0,1,0.01
2013-7-18,84.8,84.6,84.4,-99.9,-99.9,-99.9,0,0,100,29.61,29.58,2,1,2,0.00
2013-7-19,84.7,84.6,84.5,-99.9,-99.9,-99.9,0,0,100,29.63,29.63,1,1,1,0.00
2013-7-20,84.8,84.4,84.1,-99.9,-99.9,-99.9,0,0,100,29.61,29.60,1,0,1,0.00
2013-7-21,84.3,84.2,84.1,-99.9,-99.9,-99.9,0,0,100,29.55,29.55,2,2,4,0.00
2013-7-22,78.6,77.2,76.3,-99.9,-99.9,-99.9,0,0,100,29.63,29.56,7,2,10,0.27
2013-7-23,75.9,75.9,75.9,-99.9,-99.9,-99.9,0,0,100,29.67,29.67,0,0,0,0.00
2013-7-24,81.4,81.2,81.1,-99.9,-99.9,-99.9,0,0,100,29.65,29.65,0,0,0,0.00
2013-7-25,83.1,82.3,81.5,-99.9,-99.9,-99.9,0,0,100,29.65,29.63,0,0,1,0.20
2013-7-27,77.2,77.2,77.2,-99.9,-99.9,-99.9,0,0,100,29.69,29.69,0,0,0,0.00
2013-7-28,83.7,82.9,82.3,-99.9,-99.9,-99.9,0,0,100,29.67,29.67,0,0,0,0.00
2013-7-29,81.8,81.7,81.6,-99.9,-99.9,-99.9,0,0,100,29.66,29.66,0,0,0,0.14
2013-7-30,84.5,84.4,84.4,-99.9,-99.9,-99.9,0,0,100,29.58,29.58,2,2,4,0.00
2013-7-31,74.8,74.8,74.8,-99.9,-99.9,-99.9,0,0,100,29.62,29.62,0,0,0,0.00
2013-8-1,78.9,78.9,78.9,-99.9,-99.9,-99.9,0,0,100,29.60,29.60,0,0,0,0.00
2013-8-2,75.2,75.2,75.1,-99.9,-99.9,-99.9,0,0,100,29.64,29.63,2,1,3,2.15
2013-8-3,81.4,81.1,80.7,-99.9,-99.9,-99.9,0,0,100,29.64,29.64,6,6,6,0.00
2013-8-4,80.5,80.5,80.5,-99.9,-99.9,-99.9,0,0,100,29.66,29.65,3,2,3,0.00
2013-8-5,84.2,84.1,84.0,-99.9,-99.9,-99.9,0,0,100,29.66,29.66,0,0,0,0.00
2013-8-7,80.6,80.2,79.8,-99.9,-99.9,-99.9,0,0,100,29.69,29.68,2,2,2,0.15
2013-8-8,82.9,82.8,82.6,-99.9,-99.9,-99.9,0,0,100,29.61,29.61,0,0,1,0.00
2013-8-9,84.2,79.0,76.5,-99.9,-99.9,-99.9,0,0,100,29.65,29.61,8,2,12,0.17
2013-8-10,81.9,81.3,80.8,-99.9,-99.9,-99.9,0,0,100,29.60,29.60,0,0,0,0.00
2013-8-11,75.8,75.8,75.8,-99.9,-99.9,-99.9,0,0,100,29.64,29.64,0,0,0,0.00
2013-8-12,76.5,76.5,76.5,-99.9,-99.9,-99.9,0,0,100,29.60,29.60,3,3,4,0.00
2013-8-13,80.9,78.5,77.4,-99.9,-99.9,-99.9,0,0,100,29.63,29.60,2,1,3,0.08
2013-8-14,83.3,83.2,83.2,-99.9,-99.9,-99.9,0,0,100,29.62,29.62,0,0,0,0.00
2013-8-15,83.8,83.1,82.6,40.9,-32.5,-99.9,22,9,14,29.66,29.66,0,0,0,0.00
2013-8-16,78.8,78.8,78.8,-99.9,-99.9,-99.9,0,0,100,29.67,29.67,0,0,0,0.00
2013-8-17,82.0,82.0,82.0,-99.9,-99.9,-99.9,0,0,100,29.63,29.63,1,1,1,0.00
2013-8-18,82.5,81.4,79.8,46.1,27.7,-99.9,29,21,16,29.69,29.66,0,0,1,0.00
2013-8-19,79.3,79.3,79.3,-99.9,-99.9,-99.9,0,0,100,29.70,29.70,0,0,0,0.00
2013-8-20,80.1,80.1,80.1,-99.9,-99.9,-99.9,0,0,100,29.67,29.67,0,0,0,0.00
2013-8-21,81.5,81.5,81.5,-99.9,-99.9,-99.9,0,0,100,29.63,29.63,1,0,1,0.00
2013-8-22,81.5,81.4,81.3,-99.9,-99.9,-99.9,0,0,100,29.66,29.66,0,0,1,0.00
2013-8-23,81.8,81.4,80.9,4.2,-73.9,-99.9,5,1,5,29.64,29.64,0,0,0,0.00
2013-8-24,80.3,80.2,80.1,-99.9,-99.9,-99.9,0,0,100,29.63,29.63,0,0,0,0.00
2013-8-25,81.5,81.0,80.5,-99.9,-99.9,-99.9,0,0,100,29.63,29.60,0,0,0,0.22
2013-8-26,84.3,83.7,83.0,33.2,-36.9,-99.9,16,6,9,29.60,29.60,1,0,1,0.00
2013-8-27,80.2,80.1,80.1,-99.9,-99.9,-99.9,0,0,100,29.64,29.64,1,0,1,0.00
2013-8-28,81.8,81.7,81.6,-99.9,-99.9,-99.9,0,0,100,29.67,29.67,1,0,1,0.06
2013-8-29,79.6,79.6,79.6,-99.9,-99.9,-99.9,0,0,100,29.74,29.74,0,0,0,0.00
2013-8-30,79.9,79.9,79.9,-99.9,-99.9,-99.9,0,0,100,29.68,29.68,0,0,0,0.00
2013-8-31,78.6,78.6,78.6,-99.9,-99.9,-99.9,0,0,100,29.67,29.67,0,0,0,0.00
2013-9-1,79.0,78.1,77.1,-99.9,-99.9,-99.9,0,0,100,29.72,29.71,5,3,5,0.98
2013-9-2,83.5,83.5,83.4,73.5,73.3,73.0,72,72,71,29.64,29.64,3,3,3,0.00
2013-9-3,82.6,81.9,81.1,72.0,69.3,63.9,71,66,56,29.70,29.68,0,0,1,0.01
2013-9-4,89.8,85.4,77.7,80.4,53.4,-99.9,77,61,5,29.74,29.60,8,3,12,0.00
2013-9-5,89.4,82.3,78.1,80.4,-2.6,-99.9,77,38,1,29.71,29.60,8,2,10,0.00
2013-9-6,83.5,80.1,77.9,75.1,-15.8,-99.9,76,32,17,29.74,29.61,7,1,10,0.00
2013-9-7,86.0,80.0,76.4,77.5,-19.9,-99.9,76,30,2,29.77,29.63,6,2,8,0.25
2013-9-8,87.0,80.3,76.5,78.4,-15.7,-99.9,78,36,9,29.76,29.64,5,1,6,0.24
2013-9-9,87.8,83.9,78.8,77.7,71.2,-99.9,78,72,2,29.75,29.63,4,2,6,0.00
2013-9-24,86.1,80.4,78.2,70.1,-64.8,-99.9,59,11,48,29.72,29.63,3,0,5,0.52
2013-9-25,91.5,83.9,79.5,75.5,-28.0,-99.9,61,22,30,29.77,29.67,8,1,11,0.05
2013-9-26,90.5,88.3,84.7,76.2,68.7,26.4,64,54,12,29.81,29.69,4,2,7,0.00
2013-9-27,88.5,83.6,78.4,60.6,-71.7,-99.9,40,3,1,29.79,29.74,5,2,6,0.09
2013-9-29,79.9,78.5,77.2,-99.9,-99.9,-99.9,0,0,100,29.73,29.61,6,1,10,1.06
2013-9-30,86.5,81.9,79.3,-99.9,-99.9,-99.9,0,0,100,29.70,29.59,3,1,7,0.02
2013-10-1,91.2,87.9,84.3,70.4,-10.7,-99.9,52,16,1,29.70,29.60,7,3,13,0.00
2013-10-2,89.4,86.9,80.7,54.0,-77.0,-99.9,31,2,1,29.78,29.67,7,4,13,0.01
2013-10-3,87.7,82.4,76.2,40.3,-67.7,-99.9,20,2,1,29.84,29.69,8,2,8,0.06
2013-10-4,87.2,78.8,76.1,-99.9,-99.9,-99.9,0,0,100,29.82,29.69,7,1,25,0.84
2013-10-5,85.0,79.5,75.9,-99.9,-99.9,-99.9,0,0,100,29.78,29.66,5,2,7,1.09
2013-10-6,78.1,77.1,76.2,-99.9,-99.9,-99.9,0,0,100,29.75,29.63,4,1,6,0.40
2013-11-7,86.3,84.8,82.6,-99.9,-99.9,-99.9,0,0,100,29.73,29.60,6,3,11,0.00
2013-11-8,86.2,82.9,76.7,-99.9,-99.9,-99.9,0,0,100,29.72,29.58,8,2,11,0.00
2013-11-9,86.6,83.4,77.1,-99.9,-99.9,-99.9,0,0,100,29.70,29.58,4,1,5,0.04
2013-11-10,86.9,82.1,77.1,23.8,-96.7,-99.9,10,0,7,29.70,29.57,5,2,7,0.00
2013-11-11,86.5,82.4,77.8,-99.9,-99.9,-99.9,0,0,100,29.69,29.55,7,1,10,0.00
2013-11-12,87.1,81.2,75.8,-99.9,-99.9,-99.9,0,0,100,29.71,29.57,6,2,9,0.33
2013-11-13,87.2,82.2,77.5,-99.9,-99.9,-99.9,0,0,100,29.72,29.57,4,1,9,0.00
2013-11-14,90.7,82.6,77.1,46.5,-95.8,-99.9,22,0,2,29.72,29.58,7,1,10,0.22
2013-11-15,87.3,81.9,76.2,-99.9,-99.9,-99.9,0,0,100,29.72,29.58,9,1,13,0.39
2013-11-16,87.0,81.3,75.6,-99.9,-99.9,-99.9,0,0,100,29.73,29.61,7,1,9,0.01
2013-11-17,85.6,73.4,75.4,-99.9,-99.9,-99.9,0,0,100,29.80,29.66,5,-83,9,0.00
2013-11-18,89.9,82.2,77.3,53.0,-88.2,-99.9,29,1,1,29.76,29.65,7,2,13,0.02
2013-11-19,90.0,80.7,76.5,55.1,-83.3,-99.9,31,2,1,29.77,29.63,7,-12,11,0.01
2013-11-20,82.2,76.5,77.2,-99.9,-99.9,-99.9,0,0,100,29.78,29.63,4,-36,6,0.00
2013-11-21,77.8,57.7,75.9,-99.9,-99.9,-99.9,0,0,100,29.71,29.61,3,-248,8,0.35
2013-11-22,160.3,30.6,75.7,-99.9,-99.9,-99.9,0,0,100,29.68,29.58,4,1,5,0.49
2013-11-23,160.3,0.0,160.3,-99.9,-99.9,-99.9,0,0,100,29.63,29.56,7,4,12,0.01
2013-11-24,160.3,0.0,160.3,-99.9,-99.9,-99.9,0,0,100,29.65,29.60,0,0,0,0.38
2013-11-25,92.0,85.5,80.5,78.6,74.9,69.5,85,71,62,29.68,29.57,4,1,5,0.02
2013-11-26,90.0,85.3,75.8,80.1,78.4,74.6,97,80,70,29.69,29.57,6,2,10,0.00
2013-11-27,90.1,81.1,75.6,81.9,77.6,74.3,97,89,70,29.76,29.63,7,2,11,0.32
2013-11-28,83.3,79.8,77.2,79.6,78.0,76.5,98,94,86,29.81,29.67,5,1,9,0.04
2013-11-29,85.4,80.1,77.6,79.6,77.3,75.7,97,91,82,29.77,29.67,7,2,13,0.06
2013-11-30,88.3,80.9,75.8,79.9,77.2,74.6,97,89,74,29.76,29.64,7,2,10,0.02
2013-12-1,89.8,81.4,74.1,79.3,76.3,73.3,98,85,69,29.77,29.64,7,2,14,0.02
2013-12-2,87.7,79.8,73.8,78.4,75.4,72.4,96,87,72,29.77,29.65,9,2,14,0.02
2013-12-3,86.3,79.8,74.7,77.4,75.5,73.5,96,87,72,29.75,29.64,7,2,16,0.00
2013-12-4,86.4,80.0,75.2,77.0,75.4,73.7,96,87,69,29.75,29.64,7,2,13,0.00
2013-12-5,83.2,79.5,75.6,79.3,76.8,74.1,96,92,82,29.72,29.59,4,1,5,0.03
2013-12-6,85.4,79.4,76.1,78.7,76.6,75.2,98,91,79,29.69,29.61,6,2,12,0.24
2013-12-7,90.2,82.5,74.8,77.9,75.8,73.9,97,81,62,29.74,29.61,9,3,15,0.00
2013-12-8,90.1,82.2,74.8,78.6,75.6,72.9,96,81,65,29.75,29.60,8,3,15,0.00
2013-12-9,90.8,82.8,77.0,78.4,75.9,73.8,92,80,63,29.72,29.58,7,2,14,0.00
2013-12-10,90.9,81.5,73.6,79.9,75.6,72.3,96,83,63,29.70,29.57,7,2,11,0.00
2013-12-11,88.7,81.9,76.6,79.0,76.9,75.2,96,85,69,29.72,29.58,5,2,11,0.00
2013-12-12,89.2,82.6,76.9,78.9,76.9,74.7,95,83,68,29.71,29.57,9,2,19,0.00
2013-12-13,90.6,81.7,78.4,78.7,72.0,-99.9,93,78,65,29.73,29.60,8,-26,12,0.00
2013-12-14,92.0,83.4,75.1,80.1,76.0,72.9,94,79,59,29.74,29.60,7,2,10,0.00
2013-12-15,90.0,82.9,76.1,81.4,77.5,74.6,96,84,70,29.74,29.58,6,1,10,0.00
2013-12-16,91.9,82.9,77.2,81.6,78.5,76.3,97,87,70,29.73,29.58,6,1,8,0.03
2013-12-17,88.1,82.2,75.7,80.8,78.1,74.9,98,88,74,29.72,29.58,7,2,10,0.01
2013-12-18,87.5,80.8,74.9,78.7,76.2,73.7,96,86,73,29.74,29.61,5,1,7,0.00
2013-12-19,89.1,80.9,72.6,75.9,73.6,71.2,96,80,63,29.76,29.63,7,2,10,0.00
2013-12-20,89.0,79.9,72.4,76.4,73.5,70.9,96,82,64,29.80,29.68,7,2,11,0.00
2013-12-21,87.1,79.8,72.4,75.3,72.7,70.6,95,80,62,29.83,29.70,9,3,20,0.00
2013-12-22,87.2,79.2,69.9,73.1,71.0,68.1,94,77,61,29.83,29.70,10,3,15,0.00
2013-12-23,88.9,79.7,70.6,76.6,72.7,69.1,96,80,63,29.83,29.70,8,2,15,0.00
2013-12-24,89.8,81.5,72.7,75.7,73.6,71.2,96,79,58,29.86,29.71,8,2,10,0.00
2013-12-25,88.0,79.6,72.1,77.0,73.1,70.5,95,82,62,29.83,29.72,5,1,8,0.00
2013-12-26,88.7,80.3,72.1,75.4,72.9,70.3,94,79,63,29.81,29.67,7,2,11,0.00
2013-12-27,88.6,80.0,72.3,75.7,73.2,70.6,95,81,64,29.80,29.66,8,3,18,0.00
2013-12-28,89.0,80.4,72.8,75.2,72.6,70.6,94,78,62,29.80,29.66,10,4,15,0.00
2013-12-29,86.2,79.6,73.2,74.0,71.8,69.2,91,78,65,29.80,29.67,7,3,13,0.00
2013-12-30,83.9,79.3,74.0,75.8,73.6,71.7,94,83,75,29.83,29.70,9,3,13,0.00
2013-12-31,88.1,80.9,75.8,76.2,74.0,72.3,90,80,63,29.82,29.70,9,3,15,0.00
2014-1-1,90.0,82.7,76.5,76.5,74.2,72.6,89,77,59,29.80,29.67,9,4,14,0.00
2014-1-2,91.0,82.3,75.1,78.0,75.1,73.3,95,80,62,29.78,29.67,9,3,14,0.00